When you browse on this site, cookies collect data to enhance your experience and personalize the content and advertising you see.
Visit our Privacy Policy to learn more. By continuing to use the site, you agree to this use of cookies and data.

Stündliche Wetter Kerkira

Heute, 4 August, Dienstag

Zeit Temperatur Niederschläge Wind Luftdruck Luftfeuchtigkeit
00:00 +26°C° 0 mm 3 m/S 756 mmHg 74%
01:00 +25°C° 0 mm 2 m/S 757 mmHg 76%
02:00 +25°C° 0 mm 3 m/S 756 mmHg 75%
03:00 +25°C° 0 mm 3 m/S 756 mmHg 74%
04:00 +25°C° 0 mm 3 m/S 756 mmHg 72%
05:00 +27°C° 0 mm 3 m/S 756 mmHg 66%
06:00 +28°C° 0 mm 3 m/S 756 mmHg 60%
07:00 +30°C° 0 mm 3 m/S 756 mmHg 54%
08:00 +31°C° 0 mm 3 m/S 756 mmHg 51%
09:00 +33°C° 0 mm 4 m/S 756 mmHg 48%
10:00 +34°C° 0 mm 4 m/S 756 mmHg 46%
11:00 +34°C° 0 mm 4 m/S 756 mmHg 45%
12:00 +35°C° 0 mm 5 m/S 756 mmHg 45%
13:00 +35°C° 0 mm 5 m/S 756 mmHg 44%
14:00 +34°C° 0 mm 5 m/S 755 mmHg 45%
15:00 +34°C° 0 mm 5 m/S 755 mmHg 46%
16:00 +33°C° 0 mm 5 m/S 755 mmHg 47%
17:00 +32°C° 0 mm 4 m/S 755 mmHg 58%
18:00 +29°C° 0 mm 4 m/S 755 mmHg 68%
19:00 +27°C° 0 mm 3 m/S 755 mmHg 78%
20:00 +27°C° 0 mm 3 m/S 755 mmHg 78%
21:00 +26°C° 0 mm 3 m/S 756 mmHg 77%
22:00 +26°C° 0 mm 3 m/S 756 mmHg 76%
23:00 +26°C° 0 mm 3 m/S 756 mmHg 77%

Morgen, 5 August, Mittwoch

Zeit Temperatur Niederschläge Wind Luftdruck Luftfeuchtigkeit
00:00 +26°C° 0 mm 3 m/S 755 mmHg 77%
01:00 +25°C° 0 mm 4 m/S 755 mmHg 78%
02:00 +25°C° 0.1 mm 3 m/S 755 mmHg 76%
03:00 +25°C° 0.1 mm 3 m/S 755 mmHg 74%
04:00 +25°C° 0.1 mm 3 m/S 755 mmHg 72%
05:00 +26°C° 0.8 mm 3 m/S 755 mmHg 70%
06:00 +27°C° 0.8 mm 3 m/S 755 mmHg 67%
07:00 +28°C° 0.8 mm 3 m/S 755 mmHg 64%
08:00 +28°C° 2.1 mm 3 m/S 755 mmHg 64%
09:00 +28°C° 2.1 mm 3 m/S 755 mmHg 64%
10:00 +29°C° 2.1 mm 3 m/S 755 mmHg 63%
11:00 +29°C° 1.2 mm 3 m/S 755 mmHg 64%
12:00 +30°C° 1.2 mm 4 m/S 755 mmHg 64%
13:00 +30°C° 1.2 mm 4 m/S 755 mmHg 64%
14:00 +30°C° 0.4 mm 4 m/S 754 mmHg 63%
15:00 +30°C° 0.4 mm 3 m/S 754 mmHg 62%
16:00 +30°C° 0.4 mm 3 m/S 754 mmHg 60%
17:00 +29°C° 0.2 mm 3 m/S 754 mmHg 65%
18:00 +27°C° 0.2 mm 3 m/S 755 mmHg 70%
19:00 +26°C° 0.2 mm 4 m/S 755 mmHg 75%
20:00 +26°C° 0 mm 3 m/S 755 mmHg 75%
21:00 +25°C° 0 mm 3 m/S 756 mmHg 75%
22:00 +25°C° 0 mm 3 m/S 756 mmHg 75%
23:00 +25°C° 0 mm 3 m/S 756 mmHg 75%

übermorgen, 6 August, Donnerstag

Zeit Temperatur Niederschläge Wind Luftdruck Luftfeuchtigkeit
00:00 +24°C° 0 mm 2 m/S 756 mmHg 75%
01:00 +24°C° 0 mm 2 m/S 756 mmHg 74%
02:00 +24°C° 0 mm 2 m/S 756 mmHg 74%
03:00 +24°C° 0 mm 2 m/S 756 mmHg 73%
04:00 +24°C° 0 mm 2 m/S 756 mmHg 73%
05:00 +24°C° 0.1 mm 2 m/S 756 mmHg 70%
06:00 +25°C° 0.1 mm 2 m/S 756 mmHg 66%
07:00 +26°C° 0.1 mm 2 m/S 756 mmHg 62%
08:00 +27°C° 0.2 mm 1 m/S 757 mmHg 59%
09:00 +28°C° 0.2 mm 1 m/S 757 mmHg 56%
10:00 +29°C° 0.2 mm 1 m/S 757 mmHg 52%
11:00 +29°C° 0.4 mm 2 m/S 757 mmHg 53%
12:00 +29°C° 0.4 mm 2 m/S 757 mmHg 53%
13:00 +29°C° 0.4 mm 3 m/S 757 mmHg 54%
14:00 +29°C° 0 mm 3 m/S 757 mmHg 55%
15:00 +29°C° 0 mm 4 m/S 757 mmHg 55%
16:00 +29°C° 0 mm 4 m/S 757 mmHg 56%
17:00 +28°C° 0.1 mm 4 m/S 757 mmHg 62%
18:00 +27°C° 0.1 mm 3 m/S 757 mmHg 68%
19:00 +25°C° 0.1 mm 3 m/S 757 mmHg 73%
20:00 +25°C° 0.2 mm 3 m/S 757 mmHg 74%
21:00 +25°C° 0.2 mm 3 m/S 758 mmHg 74%
22:00 +24°C° 0.2 mm 2 m/S 758 mmHg 74%
23:00 +24°C° 0 mm 2 m/S 758 mmHg 74%

7 August, Freitag

Zeit Temperatur Niederschläge Wind Luftdruck Luftfeuchtigkeit
00:00 +24°C° 0 mm 2 m/S 757 mmHg 73%
01:00 +24°C° 0 mm 2 m/S 757 mmHg 72%
02:00 +24°C° 0 mm 2 m/S 757 mmHg 73%
03:00 +23°C° 0 mm 2 m/S 757 mmHg 73%
04:00 +23°C° 0 mm 1 m/S 757 mmHg 73%
05:00 +24°C° 0 mm 1 m/S 757 mmHg 69%
06:00 +25°C° 0 mm 1 m/S 757 mmHg 65%
07:00 +26°C° 0 mm 1 m/S 757 mmHg 61%
08:00 +27°C° 0 mm 1 m/S 757 mmHg 57%
09:00 +29°C° 0 mm 1 m/S 758 mmHg 52%
10:00 +30°C° 0 mm 1 m/S 758 mmHg 48%
11:00 +30°C° 0 mm 1 m/S 758 mmHg 48%
12:00 +30°C° 0 mm 2 m/S 758 mmHg 49%
13:00 +30°C° 0 mm 2 m/S 758 mmHg 50%
14:00 +30°C° 0 mm 3 m/S 757 mmHg 52%
15:00 +29°C° 0 mm 3 m/S 757 mmHg 55%
16:00 +29°C° 0 mm 4 m/S 757 mmHg 57%
17:00 +28°C° 0.1 mm 3 m/S 757 mmHg 61%
18:00 +27°C° 0.1 mm 3 m/S 757 mmHg 65%
19:00 +27°C° 0.1 mm 2 m/S 757 mmHg 68%
20:00 +26°C° 0 mm 2 m/S 757 mmHg 70%
21:00 +26°C° 0 mm 2 m/S 757 mmHg 71%
22:00 +26°C° 0 mm 2 m/S 758 mmHg 72%
23:00 +25°C° 0 mm 2 m/S 757 mmHg 72%

8 August, Samstag

Zeit Temperatur Niederschläge Wind Luftdruck Luftfeuchtigkeit
00:00 +25°C° 0 mm 2 m/S 757 mmHg 72%
01:00 +25°C° 0 mm 1 m/S 757 mmHg 72%
02:00 +25°C° 0 mm 1 m/S 757 mmHg 71%
03:00 +24°C° 0 mm 1 m/S 756 mmHg 70%
04:00 +24°C° 0 mm 2 m/S 756 mmHg 69%
05:00 +25°C° 0 mm 2 m/S 756 mmHg 65%
06:00 +26°C° 0 mm 2 m/S 756 mmHg 60%
07:00 +27°C° 0 mm 2 m/S 756 mmHg 56%
08:00 +29°C° 0 mm 2 m/S 756 mmHg 52%
09:00 +30°C° 0 mm 2 m/S 756 mmHg 47%
10:00 +31°C° 0 mm 2 m/S 757 mmHg 43%
11:00 +31°C° 0 mm 2 m/S 756 mmHg 44%
12:00 +31°C° 0 mm 2 m/S 756 mmHg 45%
13:00 +31°C° 0 mm 3 m/S 756 mmHg 47%
14:00 +30°C° 0 mm 3 m/S 756 mmHg 51%
15:00 +30°C° 0 mm 4 m/S 756 mmHg 55%
16:00 +29°C° 0 mm 4 m/S 756 mmHg 59%
17:00 +28°C° 0 mm 4 m/S 756 mmHg 62%
18:00 +28°C° 0 mm 3 m/S 756 mmHg 64%
19:00 +27°C° 0 mm 3 m/S 756 mmHg 67%
20:00 +27°C° 0 mm 2 m/S 756 mmHg 66%
21:00 +27°C° 0 mm 2 m/S 756 mmHg 66%
22:00 +26°C° 0 mm 1 m/S 756 mmHg 65%
23:00 +26°C° 0 mm 1 m/S 756 mmHg 65%

9 August, Sonntag

Zeit Temperatur Niederschläge Wind Luftdruck Luftfeuchtigkeit
00:00 +26°C° 0 mm 1 m/S 756 mmHg 65%
01:00 +25°C° 0 mm 1 m/S 756 mmHg 65%
02:00 +25°C° 0 mm 1 m/S 756 mmHg 64%
03:00 +25°C° 0 mm 2 m/S 756 mmHg 64%
04:00 +25°C° 0 mm 2 m/S 755 mmHg 64%
05:00 +26°C° 0 mm 2 m/S 756 mmHg 60%
06:00 +28°C° 0 mm 2 m/S 756 mmHg 56%
07:00 +29°C° 0 mm 2 m/S 756 mmHg 53%
08:00 +30°C° 0 mm 2 m/S 756 mmHg 48%
09:00 +32°C° 0 mm 1 m/S 756 mmHg 43%
10:00 +33°C° 0 mm 1 m/S 756 mmHg 39%
11:00 +34°C° 0 mm 2 m/S 756 mmHg 40%
12:00 +34°C° 0 mm 3 m/S 756 mmHg 42%
13:00 +33°C° 0 mm 4 m/S 756 mmHg 43%
14:00 +33°C° 0 mm 4 m/S 756 mmHg 46%
15:00 +31°C° 0 mm 3 m/S 755 mmHg 48%
16:00 +31°C° 0 mm 3 m/S 755 mmHg 50%
17:00 +30°C° 0 mm 3 m/S 756 mmHg 54%
18:00 +29°C° 0 mm 3 m/S 756 mmHg 58%
19:00 +28°C° 0 mm 2 m/S 756 mmHg 61%
20:00 +28°C° 0 mm 2 m/S 756 mmHg 62%
21:00 +28°C° 0 mm 2 m/S 756 mmHg 62%
22:00 +27°C° 0 mm 2 m/S 757 mmHg 62%
23:00 +27°C° 0 mm 2 m/S 757 mmHg 63%
Mehr zeigen